{"data":{"norad_id":59490,"epoch":"2026-09-21T10:54:50.628960Z","epoch_age_seconds":82556,"freshness":"FRESH","line1":"1 59490U 24071G   26264.45475265 -.00000012  00000+0  91036-5 0  9996","line2":"2 59490  43.0025 325.5810 0001357 267.5258  92.5439 15.27577927138015","mean_motion":15.27577927,"eccentricity":0.0001357,"inclination_deg":43.0025,"raan_deg":325.581,"arg_perigee_deg":267.5258,"mean_anomaly_deg":92.5439,"bstar":9.1036e-6,"rev_number":13801,"period_min":94.266876638366,"perigee_km":482.12423955887,"apogee_km":483.98636715,"semimajor_km":6861.1923033544,"source":"CELESTRAK","updated_at":"2026-09-22T09:00:48.956562Z"}}